Location: Bad Salzschlirf
(50.3750°N, 9.3000°E)
Time: 06:34:29
(UTC+01:00)

ISS - Pass Details

Date: 10 November 2018
Orbit: 402 x 408 km, 51.6° (Epoch: 17 November)

Event Time Altitude Azimuth Distance (km) Brightness Sun altitude
Exits shadow 04:25:40 16° 90° (E) 1,163 -0.7 -29.1°
Drops below altitude 10° 04:26:25 10° 92° (E) 1,463 -0.1 -29.0°
Sets 04:28:30 0° 94° (E) 2,324 1.2 -28.7°
